Content
SEND FEEDBACK

Daily
Averages
Monthly
Summary
United States of America

NORTH POLE, ALASKA


Home > North America > United States > Alaska
Elevation: 484 feet     Latitude: 64 45N     Longitude: 147 20W

WEATHER
 
SELECT A DAY
Number of Records: 97,297;   Date Range: 1/3/95 - 7/29/14
 
SHARE

PRINT THIS DATA

[ ← Previous Day ]
WEATHER ALMANAC - JANUARY 31, 2013
[ Next Day → ]
[ °C ]   °F
Weather ElementAverageHighLow
Temperature8.9 °F10.4 °F (6:29 am)6.8 °F (4:55 pm)
Dewpoint4.1 °F6.8 °F (9:06 am) (7:00 pm)
Humidity80.8 %85 % (7:24 am)73 % (1:56 am)
Barometer29.91 in30.16 in (11:56 pm)29.78 in (5:04 am)
Wind Speed1.2 mph4.6 mph (1:56 am)
Weather ElementAverage
Visibility4.2 mi
Wind DirectionENE (78.7 °)

Weather ElementTotal
Precipitation---
Heating Degree Days56.4 (Base 65)
Averaged from 45 records on January 31, 2013
WEATHER CONDITIONS BREAKOUT
WIND DIRECTION BREAKOUT
WEATHER BY HOUR - JANUARY 31, 2013
[ °C ]   °F
Local TimeTemperatureDewpointHumidityBarometerVisibilityWind DirectionWind SpeedGust SpeedPrecipitationEventsConditions
1:56 AM7.0 °F0.0 °F73 %29.79 in10.0 miWest (260°)4.6 mphMostly Cloudy
2:56 AM9.0 °F1.9 °F73 %29.80 in10.0 miWNW (290°)3.5 mphOvercast
3:56 AM8.1 °F1.0 °F73 %29.82 in10.0 miWSW (250°)3.5 mphOvercast
4:56 AM9.0 °F3.0 °F77 %29.82 in5.0 miCalm0.00 inSnowLight Snow
5:04 AM8.6 °F3.2 °F79 %29.78 in2.5 miCalm0.00 inSnowLight Snow
5:27 AM8.6 °F3.2 °F79 %29.78 in4.0 miCalm0.00 inSnowLight Snow
5:34 AM8.6 °F3.2 °F79 %29.78 in5.0 miCalm0.00 inSnowLight Snow
5:56 AM9.0 °F3.9 °F80 %29.83 in10.0 miWNW (290°)3.5 mph0.00 inOvercast
6:29 AM10.4 °F3.2 °F73 %29.80 in3.0 miCalmSnowLight Snow
6:50 AM10.4 °F3.2 °F73 %29.80 in2.0 miCalmSnowLight Snow
6:55 AM10.4 °F3.2 °F73 %29.84 in2.0 miCalmSnowLight Snow
7:00 AM8.6 °F3.2 °F79 %29.80 in1.0 miWNW (300°)3.5 mphSnowLight Snow
7:24 AM8.6 °F5.0 °F85 %29.81 in1.5 miWNW (290°)3.5 mphSnowLight Snow
7:43 AM8.6 °F5.0 °F85 %29.81 in2.0 miCalmSnowLight Snow
7:55 AM8.6 °F5.0 °F85 %29.85 in2.0 miCalmSnowLight Snow
8:17 AM10.4 °F5.0 °F79 %29.82 in3.0 miCalmSnowLight Snow
8:36 AM8.6 °F5.0 °F85 %29.82 in2.0 miCalmSnowLight Snow
8:49 AM8.6 °F5.0 °F85 %29.83 in1.0 miCalmSnowLight Snow
8:55 AM8.6 °F5.0 °F85 %29.86 in1.0 miCalmSnowLight Snow
9:06 AM10.4 °F6.8 °F85 %29.83 in1.8 miCalmSnowLight Snow
9:12 AM10.4 °F6.8 °F85 %29.83 in2.5 miCalmSnowLight Snow
9:29 AM8.6 °F5.0 °F85 %29.84 in1.2 miCalmSnowLight Snow
9:46 AM8.6 °F5.0 °F85 %29.84 in2.5 miCalmSnowLight Snow
9:55 AM8.6 °F5.0 °F85 %29.88 in2.5 miCalmSnowLight Snow
10:18 AM8.6 °F5.0 °F85 %29.86 in1.2 miCalmSnowLight Snow
10:32 AM10.4 °F5.0 °F79 %29.86 in1.8 miCalmSnowLight Snow
10:55 AM10.4 °F6.8 °F85 %29.91 in1.5 miCalmSnowLight Snow
11:55 AM10.4 °F6.8 °F85 %29.94 in1.5 miCalmSnowLight Snow
12:42 PM10.4 °F6.8 °F85 %29.92 in1.0 miSSW (210°)4.6 mphSnowLight Snow
12:55 PM10.4 °F6.8 °F85 %29.96 in1.5 miSW (220°)3.5 mphSnowLight Snow
1:12 PM10.4 °F5.0 °F79 %29.93 in2.5 miSouth (170°)3.5 mphSnowLight Snow
1:37 PM10.4 °F5.0 °F79 %29.94 in3.0 miCalmSnowLight Snow
1:55 PM10.4 °F5.0 °F79 %29.98 in5.0 miCalmSnowLight Snow
2:55 PM10.4 °F5.0 °F79 %29.98 in7.0 miCalmMostly Cloudy
3:21 PM10.4 °F5.0 °F79 %29.97 in7.0 miSSW (200°)2.3 mphSnowLight Snow
3:55 PM8.6 °F3.2 °F79 %30.02 in7.0 miSouth (180°)2.3 mphMostly Cloudy
4:35 PM8.6 °F3.2 °F79 %30.00 in7.0 miSSW (200°)4.6 mphMostly Cloudy
4:55 PM6.8 °F3.2 °F85 %30.05 in7.0 miSW (230°)4.6 mphSnowLight Snow
5:55 PM6.8 °F3.2 °F85 %30.05 in5.0 miCalmSnowLight Snow
6:55 PM6.8 °F1.4 °F79 %30.08 in5.0 miSW (220°)2.3 mphSnowLight Snow
7:55 PM6.8 °F1.4 °F79 %30.10 in6.0 miSW (230°)2.3 mphSnowLight Snow
8:55 PM6.8 °F1.4 °F79 %30.11 in6.0 miCalmSnowLight Snow
9:55 PM6.8 °F1.4 °F79 %30.13 in6.0 miCalmSnowLight Snow
10:56 PM7.0 °F3.0 °F84 %30.14 in9.0 miCalm0.00 inOvercast
11:56 PM7.0 °F3.0 °F84 %30.16 in10.0 miCalm0.00 inOvercast
Hourly data recorded from PAFB, located miles away from North Pole, Alaska







STORIES FROM OUR PARTNERS